Regional Weather Roundup
Issued by NWS Sterling, VA

Home | Current Version | Previous Version | Text Only | Print | Product List | Glossary Off
Versions: 1 2 3 4 5 6 7 8 9 10 11 12 13 14 15 16 17 18 19 20 21 22 23 24 25 26 27

000
ASUS41 KLWX 190410
RWRLWX

REGIONAL WEATHER ROUNDUP
NATIONAL WEATHER SERVICE BALTIMORE MD/WASHINGTON DC
1200 AM EDT SAT APR 19 2014

Note: "FAIR" indicates few or no clouds below 12,000 feet
with no significant weather and/or obstructions to visibility.
 TC=TEMPERATURE CELSIUS

 * =Non NWS site. Station does not report precipitation (e.g. rain,
    snow, etc.), thunder, or fog.

DCZ001-MDZ009-015-VAZ040>042-051-053>054-190500-
WASHINGTON METRO

CITY           SKY/WX    TMP DP  RH WIND       PRES   REMARKS
WASHINGTON NAT CLOUDY    50  36  58 S6        30.29F
DULLES         CLOUDY    46  34  62 CALM      30.28F
ANDREWS AFB    CLOUDY    43  37  79 S3        30.28F
FT BELVOIR     CLOUDY    43  38  80 CALM      30.29F
QUANTICO       CLOUDY    50  39  66 S10       30.30F
COLLEGE PARK*  CLOUDY    45  37  76 CALM      30.28S
LEESBURG*      CLOUDY    46  37  71 CALM      30.28F
MANASSAS*      CLOUDY    45  39  81 CALM      30.28F
GAITHERSBURG*  CLOUDY    45  32  61 CALM      30.30F

$$

MDZ006>007-011-014-190500-
BALTIMORE METRO

CITY           SKY/WX    TMP DP  RH WIND       PRES   REMARKS
BWI AIRPORT    CLOUDY    45  35  68 CALM      30.27F
MD SCIENCE CTR   N/A     49  34  56 MISG      30.29F
MARTIN STATE   CLOUDY    46  41  81 CALM      30.30F
ANNAPOLIS      CLOUDY    48  39  71 CALM      30.28F
FORT MEADE*    CLOUDY    41  36  81 CALM      30.30F

$$

MDZ012-015-019>023-190500-
MARYLAND EASTERN SHORE

CITY           SKY/WX    TMP DP  RH WIND       PRES   REMARKS
OCEAN CITY     CLOUDY    44  39  82 CALM      30.29F
SALISBURY      CLOUDY    45  39  79 S3        30.30S
BAY BRIDGE AP* CLOUDY    46  39  76 E3        30.29F
CAMBRIDGE*     CLOUDY    46  39  76 S3        30.30R
EASTON*        CLOUDY    46  42  83 CALM      30.32F

$$

MDZ017>025-190500-
SOUTHERN MARYLAND

CITY           SKY/WX    TMP DP  RH WIND       PRES   REMARKS
PATUXENT RIVER CLOUDY    46  39  76 S3        30.30R
ST INIGOES     CLOUDY    46  41  82 CALM      30.29S
LEONARDTOWN*   CLOUDY    45  37  76 CALM      30.31S

$$

MDZ003>005-190500-
NORTH CENTRAL MARYLAND

CITY           SKY/WX    TMP DP  RH WIND       PRES   REMARKS
FREDERICK*     CLOUDY    43  37  81 CALM      30.30S
HAGERSTOWN APT CLOUDY    48  33  56 SE3       30.25F
WESTMINSTER*   CLOUDY    45  34  65 S3        30.27S

$$

MDZ501>502-190500-
WESTERN MARYLAND

CITY           SKY/WX    TMP DP  RH WIND       PRES   REMARKS
OAKLAND*       CLOUDY    50  25  37 SW3       30.23F
CUMBERLAND*    CLOUDY    50  36  57 CALM      30.28F

$$

VAZ025>031-190500-
SHENANDOAH VALLEY

CITY           SKY/WX    TMP DP  RH WIND       PRES   REMARKS
WINCHESTER*    CLOUDY    45  37  76 CALM      30.25S
STAUNTON*      CLOUDY    45  38  76 CALM      30.27F

$$

WVZ021-048>050-054>055-190500-
EASTERN WEST VIRGINIA PANHANDLE

CITY           SKY/WX    TMP DP  RH WIND       PRES   REMARKS
MARTINSBURG    CLOUDY    46  35  65 CALM      30.26S
PETERSBURG*    CLOUDY    52  44  76 NW3       30.26S

$$

VAZ036>039-050-190500-
CENTRAL FOOTHILLS

CITY           SKY/WX    TMP DP  RH WIND       PRES   REMARKS
CHARLOTTESVILL CLOUDY    49  38  65 S8        30.27S
CULPEPER*      CLOUDY    46  39  76 CALM      30.29S

$$

VAZ055>057-190500-
NORTH AND CENTRAL PIEDMONT

CITY           SKY/WX    TMP DP  RH WIND       PRES   REMARKS
FREDERICKSBRG* CLOUDY    48  39  71 CALM      30.29S
STAFFORD*      CLOUDY    44  40  83 CALM      30.33S

$$

NCZ024-NYZ072-PAZ021-071-VAZ022-071-190500-
OTHER REGIONAL OBSERVATIONS

CITY           SKY/WX    TMP DP  RH WIND       PRES   REMARKS
NEW YORK CITY  CLOUDY    43  33  68 CALM      30.29F
PHILADELPHIA   CLOUDY    46  37  71 S6        30.30F
PITTSBURGH     MOCLDY    54  37  52 NW3       30.23R
ROANOKE        CLOUDY    49  38  65 CALM      30.28F
RICHMOND       CLOUDY    47  40  76 SE5       30.30S
RALEIGH        LGT RAIN  50  46  86 E6        30.25F FOG

$$

ANZ530>537-190500-
MARINE OBSERVATIONS

STATION/POSITION TIME  TEMP    WIND        PRES
                       AIR SEA DIR/SP/G
                 (UTC) (F)     (DEG/KT/KT) (MB)
THOMAS PT LIGHT  0400   49 52  100/  2/  2 1025.9F
BALT KEY BRIDGE  0400   49     240/  1/  2 1025.6F
COVE POINT       0400   47     210/  5/  5 1025.9R
LEWISETTA        0400   47 53  240/  1/  2 1025.9R
SOLOMONS ISLAND  0400      52                N/A
PINEY POINT      0400          200/  4/  6   N/A

$$




USA.gov is the U.S. government's official web portal to all federal, state and local government web resources and services.